Погода в Некрасовке

Россия / Орловская область     52°59′27″N   36°01′25″E
темп.,
°C
ветер,
м/с
пор.,
м/с
влажн.,
%
обл.,
%
осадки,
мм/ч
давл.,
гПа
погр.,
м
9 мая, вс
вс900:00+3зсз91597100 1.1 1006561
03:00+3сз81597100 6.0 1009978
06:00+3сз81497100 1.6 1011713
09:00+5сз81082100 1.7 10131059
12:00+7сз81072100 0.3 10151454
15:00+9ссз8116054 0.3 10181617
18:00+9сз696755 0.1 10201347
21:00+5зсз410790 0.1 1022173
10 мая, пн
пн1000:00+3сз411825 0.0 1024191
03:00+2ссз411830 0.0 1025186
06:00+3ссз39810 0.0 1027188
09:00+9с58630 0.0 1027539
12:00+12с79525 0.0 10271640
15:00+13ссв79485 0.0 10261685
18:00+11ссв610590 0.0 10261030
21:00+6с412780 0.0 1027236
11 мая, вт
вт1100:00+7ссв6157052 0.0 1026393
03:00+7ссв61470100 0.0 1025421
06:00+7ссв71573100 0.0 1025406
09:00+10св8157787 0.0 1024523
12:00+14всв8127551 0.0 1024865
15:00+16всв71177100 0.1 10231238
18:00+15в6118323 0.5 1024973
21:00+10в35895 0.6 102479
12 мая, ср
ср1200:00+9юв3690100 0.0 1024136
03:00+8вюв4894100 2.9 1024332
06:00+8всв369597 1.6 1023250
09:00+12в57805 1.6 1022696
12:00+15в8106339 0.3 10211582
15:00+15вюв7107098 1.0 10201378
18:00+13ююв498286 0.9 1019684
21:00+10вюв3893100 1.4 1019342
13 мая, чт
чт1300:00+10вюв51391100 0.9 1018472
03:00+10вюв41093100 1.2 1018356
06:00+10вюв3895100 0.9 1018281
09:00+12юв499094 0.9 1018518
12:00+17ююв697057 0.3 10171383
15:00+18ююв586592 0.6 10171461
18:00+18ююв477274 0.2 1016368
21:00+13юв4785100 0.3 1016113